Powrót do katalogu

DMSP 5D-2 F11 DEB

AktywnySSO
NORAD 28307·DEBRIS·🇺🇸 United States

Wystrzelony Nov 28, 1991 z Vandenberg Space Force Base

Loading…

Następne Przeloty (najbliższe 24 godziny)

TLE

ŚwieżeSource: Space-Track

Epoka: Sep 14, 2026, 14:03 UTC

1 28307U 91082U   26257.58545345  .00000006  00000-0  27729-4 0  9998
2 28307  98.7732 293.8608 0037835 322.5781 191.1112 14.10481542152383

Śledź DMSP 5D-2 F11 DEB w czasie rzeczywistym z AllMySat

Download on the App Store